User: anonymous   Login
Location: Unspecified
(0.0000°N, 0.0000°E)
Time: 00:20:49
(UTC+00:00)
Language:

WGS 7 (USA 263) - Orbit

View from above orbital plane
View from above orbital plane
View from above satellite
View from above satellite

Ground track
Ground track

The orbit data is extracted from the following two-line orbital elements,

1 40746U 15036A   17015.40781011 0.00000000  00000-0  00000-0 0    05
2 40746   0.0220  76.8559 0003453 139.0724 220.9700  1.00270000    08
Epoch (UTC): 15 January 2017 09:47:14
Eccentricity: 0.0003453
inclination: 0.0220°
perigee height: 35772 km
apogee height: 35801 km
right ascension of ascending node: 76.8559°
argument of perigee: 139.0724°
revolutions per day: 1.00270000
mean anomaly at epoch: 220.9700°
orbit number at epoch: 0

The dashed part of the orbit path shows where the satellite is in the earth's shadow,  

DLR